Location: Casevecchie
(42.4220°N, 9.4667°E)
Time: 09:52:02
(UTC+00:00)

Daily predictions for brighter satellites

Satellite Brightness Start Highest point End
(mag) Time Altitude Azimuth Time Altitude Azimuth Time Altitude Azimuth
COSMOS 2487 2.6 16:48:06 10° N 16:51:27 46° ENE 16:54:45 10° SE
Aureole 1 Rocket 3.4 16:48:48 10° NNW 16:51:40 46° WSW 16:54:41 10° S
Cosmos 1741 Rocket 4.0 16:46:42 10° NNW 16:51:56 63° ENE 16:57:05 10° SSE
Envisat 3.7 16:48:04 10° S 16:53:05 60° W 16:58:07 10° NNW
Cosmos 1300 3.7 16:50:56 10° SE 16:54:05 25° E 16:57:15 10° NE
FengYun 1-2 T 4.3 16:49:45 10° SSE 16:55:19 63° ENE 17:00:55 10° N
NOAA 11 4.3 16:51:43 10° SSE 16:57:02 57° ENE 17:02:22 10° N
BREEZE-M R/B 4.1 16:56:52 10° WNW 17:00:04 36° N 17:05:49 10° ENE
Helios 1A Rocket 4.0 16:57:39 10° ESE 17:01:03 25° ENE 17:04:26 10° NNE
Cosmos 2369 Rocket 4.4 17:03:35 10° WSW 17:08:05 24° NW 17:12:38 10° N
Cosmos 1939 Rocket 3.2 17:05:12 10° SE 17:08:58 41° ENE 17:12:42 10° N
Cosmos 1850 Rocket 4.1 17:03:46 10° NNW 17:09:06 88° WSW 17:14:26 10° SSE
USA 276 4.2 17:06:27 10° W 17:09:14 27° SW 17:12:00 10° SSE
Cosmos 2297 Rocket 3.3 17:06:36 10° N 17:11:11 24° NE 17:15:45 10° ESE
PSLV R/B 4.4 17:07:51 10° NNE 17:11:47 38° E 17:15:39 10° SSE
COSMO-SKYMED 1 2.7 17:10:52 10° NNE 17:15:08 52° E 17:19:21 10° S
Okean O Rocket 2.7 17:11:33 10° S 17:15:47 48° W 17:20:02 10° NNW
Aureole 3 Rocket 3.7 17:13:49 10° SSE 17:16:57 28° E 17:20:53 10° NNE
Cosmos 1689 Rocket 2.2 17:15:03 10° NNE 17:17:51 46° E 17:20:38 10° S
H-2A R/B 3.2 17:14:39 10° ESE 17:18:49 24° ENE 17:23:03 10° NNE
H-2A R/B 4.5 17:19:01 10° NNW 17:22:20 23° WNW 17:25:35 10° WSW
Cosmos 1328 4.3 17:19:12 10° NNW 17:23:07 63° W 17:27:00 10° S
IRS-1C Rocket 4.0 17:18:39 10° SSE 17:23:50 67° ENE 17:29:06 10° N
CZ-4 R/B 1.9 17:23:06 10° SE 17:26:41 35° ENE 17:30:14 10° N
Cosmos 1340 3.6 17:24:23 10° NNE 17:27:39 27° ENE 17:30:52 10° SE
Cosmos 1553 Rocket 4.4 17:22:31 10° SSE 17:28:21 39° E 17:34:08 10° NNE
Cosmos 1825 Rocket 3.6 17:25:02 10° N 17:29:30 87° W 17:33:55 10° S
ERS-2 3.8 17:26:22 10° N 17:29:43 36° WNW 17:33:04 10° SW
YAOGAN 1 3.1 17:26:32 10° SE 17:30:28 36° ENE 17:34:25 10° N
USA 281 4.4 17:24:54 10° S 17:31:09 46° WSW 17:37:26 10° NW
Lacrosse 5 3.9 17:31:07 10° WNW 17:34:37 18° NNW 17:38:08 10° NNE
Cosmos 2219 3.7 17:31:27 10° N 17:36:51 39° ENE 17:41:21 14° ESE
Meteor 2-21 Rocket 4.4 17:31:05 10° N 17:37:17 87° E 17:43:25 10° S
Meteor 2-8 Rocket 4.5 17:33:23 10° S 17:39:18 57° E 17:45:18 10° NNE
Cosmos 1400 Rocket 2.9 17:37:02 10° S 17:41:03 54° E 17:45:04 10° NNE
CZ-4B R/B 3.6 17:38:19 10° NNW 17:41:04 26° WNW 17:43:45 10° SW
Cosmos 44 3.0 17:38:43 10° SSW 17:43:09 82° ESE 17:47:38 11° NE
Geosat 4.0 17:38:41 10° NE 17:43:38 57° ESE 17:48:34 10° SSW
Okean-O 2.6 17:39:20 10° SSE 17:43:42 65° ENE 17:48:07 10° N
Cosmos 1726 Rocket 3.6 17:39:44 10° S 17:44:04 80° W 17:48:27 10° N
Atlas Centaur 2 4.4 17:37:51 10° SSW 17:44:08 23° SSE 17:48:39 15° ESE
Cosmos 1745 Rocket 4.3 17:49:39 10° N 17:55:39 44° ENE 18:01:39 10° SSE
Aureole 3 2.7 17:53:31 10° S 17:56:58 84° W 18:00:02 10° N
SL-08 R/B 4.4 17:51:08 10° N 17:57:16 63° E 18:03:18 10° SSE
FALCON 9 DEB 2.8 17:56:10 10° SW 17:59:24 90° NNE 17:59:55 60° NE
OAO 3 Rocket 4.4 17:56:30 10° WSW 18:00:42 31° S 18:02:49 22° SE
CZ-2C R/B 3.2 18:00:34 10° SSE 18:06:23 81° ENE 18:12:08 10° N
FALCON 9 DEB 3.0 18:03:49 10° WSW 18:07:00 71° NW 18:07:15 66° N
SL-4 R/B 3.6 18:04:38 10° NW 18:07:21 19° N 18:08:01 19° NNE
ARGOS 3.3 18:09:09 32° ESE 18:11:16 48° ENE 18:16:28 10° N
NOSS 3-3 (A) 4.2 18:08:00 10° S 18:13:17 40° ESE 18:14:04 39° E
NOSS 3-3 (C) 4.2 18:08:06 10° S 18:13:24 40° ESE 18:14:12 39° E
Cosmos 1346 Rocket 3.8 18:10:28 10° N 18:12:50 31° NNE 18:12:50 31° NNE
Meteor 2-10 Rocket 3.5 18:09:01 10° S 18:14:20 61° E 18:19:29 10° NNE
Meteor 2-15 4.3 18:08:20 10° S 18:14:25 70° E 18:20:32 10° NNE
FALCON 9 DEB 3.2 18:11:51 10° WSW 18:15:00 64° NW 18:15:00 64° NW
Cosmos 2227 Rocket 2.2 18:09:36 10° NNW 18:15:12 59° ENE 18:17:08 39° ESE
SeaSat 1 2.6 18:14:54 46° E 18:15:47 52° ENE 18:20:35 10° NNW
Cosmos 1386 Rocket 4.5 18:09:35 10° N 18:15:57 60° E 18:22:12 10° SSE
Cosmos 1892 2.5 18:15:08 10° N 18:19:01 82° E 18:19:18 74° SE
USA 215 4.0 18:17:28 30° ENE 18:19:33 37° NNE 18:25:27 10° NW
Cosmos 1656 3.5 18:16:03 10° SSW 18:21:35 86° ESE 18:26:21 15° NNE
CSL-04 Rocket 3.6 18:18:35 10° SSE 18:24:08 84° ENE 18:29:42 10° NNW
Cosmos 2058 Rocket 4.2 18:20:50 10° SSW 18:25:07 46° WNW 18:29:28 10° N
Cosmos 1709 Rocket 4.3 18:19:47 10° N 18:25:50 43° ENE 18:25:51 43° ENE
Cosmos 2263 Rocket 4.2 18:22:54 10° NNE 18:24:14 13° NNE 18:24:14 13° NNE
Cosmos 968 Rocket 3.4 18:20:57 10° NNW 18:26:10 66° ENE 18:26:57 57° ESE
ATLAS 2AS CENTAUR R/B 4.1 18:20:55 10° NNW 18:26:40 22° NNE 18:27:53 22° NE
FALCON 9 DEB 4.3 18:26:44 10° WSW 18:29:11 38° WNW 18:29:11 38° WNW
Cosmos 1486 Rocket 3.9 18:27:16 10° NNW 18:32:39 80° ENE 18:33:47 56° SE
Cosmos 1697 Rocket 2.7 18:27:52 10° S 18:32:53 55° SE 18:32:53 55° SE
GEOS 3 Rocket 3.8 18:36:45 39° SSE 18:38:46 71° SW 18:44:10 10° NW
Cosmos 883 Rocket 4.3 18:34:55 10° S 18:41:00 63° E 18:47:03 10° NNE
S3M 4.0 18:36:01 10° S 18:42:07 79° W 18:48:17 10° N
Milstar 3 4.0 18:45:37 10° SW 18:51:06 27° S 18:51:54 26° SSE
Cosmos 2297 Rocket 2.8 18:50:03 10° NNW 18:55:35 55° WSW 18:57:46 34° SSW
H-2A R/B 2.9 18:52:40 10° S 18:57:52 50° W 19:03:10 10° NNW
Cosmos 2058 4.4 18:55:28 10° NNW 18:57:58 32° NW 18:57:58 32° NW
MOS 1 Rocket 4.5 18:55:12 10° N 18:59:32 42° WNW 19:04:06 10° SW
CZ-4 R/B 4.1 18:59:14 10° SW 19:01:49 17° W 19:04:24 10° NW
Lacrosse 5 4.2 19:16:13 10° NNW 19:18:09 15° N 19:18:09 15° N
Atlas Centaur 2 4.1 19:25:39 10° SW 19:31:14 30° SSW 19:31:14 30° SSW
CZ-4C R/B 4.3 19:33:39 10° NNW 19:37:16 24° N 19:37:16 24° N
Cosmos 2227 Rocket 4.3 19:54:45 10° NW 19:58:45 20° W 19:59:01 20° WSW
USA 215 4.3 20:04:50 40° NW 20:04:50 40° NW 20:08:44 10° NW
ATLAS 2AS CENTAUR R/B 4.2 20:11:39 10° NNW 20:15:19 31° NNW 20:15:19 31° NNW
